Denison
Sunday 3:15 PM
Temperature73° (73°/59°)
Dew Point59°
Relative Humidity61
%
Visibility10
mi
Pressure1021.7
mb
Wind DirectionS
170°
Wind Speed20
mph
(G30)
Precipitation Today0.00"

Last 30 Observations

Time PresWx Temp DP Feels RH% Vsby Pressure Ceiling Direction Speed 1h Precip
3:15 PM 73° 59° 61
%
10
mi
1021.7
mb
S
170°
20
mph
(G30)
0.00"
2:55 PM 73° 57° 57
%
10
mi
1022.0
mb
SSE
160°
18
mph
0.00"
2:35 PM 73° 57° 57
%
10
mi
1022.4
mb
SSE
160°
14
mph
(G25)
0.00"
2:15 PM 72° 57° 60
%
10
mi
1022.7
mb
S
170°
18
mph
(G24)
0.00"
1:55 PM 70° 57° 64
%
10
mi
1023.4
mb
SSE
150°
17
mph
0.00"
1:35 PM 70° 57° 64
%
9
mi
1023.7
mb
SSE
160°
14
mph
0.00"
1:15 PM 68° 57° 68
%
10
mi
1024.1
mb
S
170°
21
mph
(G28)
0.00"
12:55 PM 66° 59° 78
%
10
mi
1024.4
mb
SSE
160°
18
mph
0.00"
12:35 PM 66° 57° 73
%
10
mi
1024.7
mb
6,500
ft
SSE
150°
15
mph
0.00"
12:15 PM 64° 57° 77
%
10
mi
1024.7
mb
7,000
ft
S
170°
11
mph
(G20)
0.00"
11:55 AM 64° 57° 77
%
10
mi
1025.1
mb
7,000
ft
SSE
150°
14
mph
(G21)
0.00"
11:35 AM 64° 57° 77
%
1025.1
mb
7,500
ft
SSE
150°
11
mph
0.00"
11:15 AM 64° 57° 77
%
10
mi
1025.1
mb
7,500
ft
SSE
160°
14
mph
(G21)
0.00"
10:55 AM 64° 57° 77
%
10
mi
1025.1
mb
7,000
ft
SSE
160°
9
mph
0.00"
10:35 AM 64° 57° 77
%
10
mi
1025.1
mb
4,900
ft
SSE
160°
10
mph
0.00"
10:15 AM 64° 55° 73
%
10
mi
1025.4
mb
5,000
ft
SSE
150°
9
mph
0.00"
9:55 AM 63° 55° 77
%
10
mi
1025.4
mb
5,500
ft
SE
130°
7
mph
0.00"
9:35 AM 63° 55° 77
%
10
mi
1025.1
mb
6,500
ft
SSE
150°
10
mph
0.00"
9:15 AM 63° 55° 77
%
10
mi
1025.4
mb
7,000
ft
SE
130°
8
mph
0.00"
8:55 AM 63° 55° 77
%
10
mi
1025.1
mb
7,500
ft
SE
140°
8
mph
0.00"
8:35 AM 63° 55° 77
%
10
mi
1025.1
mb
8,000
ft
SE
130°
9
mph
0.00"
8:15 AM 63° 55° 77
%
10
mi
1025.4
mb
5,500
ft
SE
130°
8
mph
0.00"
7:55 AM 61° 57° 88
%
10
mi
1025.4
mb
5,500
ft
E
100°
9
mph
0.00"
7:35 AM 61° 57° 88
%
10
mi
1025.1
mb
5,500
ft
ESE
120°
9
mph
0.00"
7:15 AM 61° 57° 88
%
10
mi
1024.7
mb
5,500
ft
SE
130°
8
mph
0.00"
6:55 AM 59° 57° 94
%
10
mi
1025.1
mb
5,500
ft
SE
130°
6
mph
0.00"
6:35 AM 59° 57° 94
%
10
mi
1024.7
mb
6,000
ft
SE
130°
6
mph
0.00"
6:15 AM 59° 57° 94
%
10
mi
1024.7
mb
5,500
ft
SE
130°
5
mph
0.00"
5:55 AM 59° 57° 94
%
10
mi
1024.4
mb
6,000
ft
ESE
120°
5
mph
0.00"
5:35 AM 59° 57° 94
%
10
mi
1024.4
mb
6,000
ft
ENE
70°
3
mph
0.00"